| time (UTC) | temp C | wind direction | speed KPH | gust KPH | rain 1hr cm | rain 24hr cm | rain mn cm | humidity % | barometer mb |
| 20260507111639 | 7 | 260 | 22.5 | 0.0 | 0.00 | 0.00 | 0.00 | 93 | |
| 20260507101839 | 7 | 250 | 29.0 | 0.0 | 0.00 | 0.00 | 0.00 | 99 | |
| 20260507091639 | 7 | 250 | 32.2 | 41.8 | 0.00 | 0.00 | 0.00 | 99 | |
| 20260507081639 | 7 | 240 | 25.7 | 0.0 | 0.00 | 0.00 | 0.00 | 93 | |
| 20260507071639 | 6 | 260 | 14.5 | 0.0 | 0.00 | 0.00 | 0.00 | 99 | |
| 20260507061639 | 6 | 270 | 14.5 | 0.0 | 0.00 | 0.00 | 0.00 | 99 | |
| 20260507051639 | 6 | 280 | 16.1 | 0.0 | 0.00 | 0.00 | 0.00 | 93 | |
| 20260507041841 | 6 | 280 | 19.3 | 0.0 | 0.00 | 0.00 | 0.00 | 93 | |
| 20260507031639 | 6 | 270 | 12.9 | 0.0 | 0.00 | 0.00 | 0.00 | 99 | |
| 20260507021637 | 6 | 260 | 20.9 | 0.0 | 0.00 | 0.00 | 0.00 | 99 | |
| 20260507011738 | 7 | 260 | 20.9 | 0.0 | 0.00 | 0.00 | 0.00 | 93 | |
| 20260507001639 | 7 | 250 | 27.4 | 0.0 | 0.00 | 0.00 | 0.00 | 93 | |
| 20260506231639 | 7 | 240 | 19.3 | 0.0 | 0.00 | 0.00 | 0.00 | 99 | |
| 20260506221838 | 7 | 270 | 12.9 | 0.0 | 0.00 | 0.00 | 0.00 | 93 | |
| 20260506211639 | 7 | 300 | 14.5 | 0.0 | 0.00 | 0.00 | 0.00 | 93 | |
| 20260506201639 | 8 | 270 | 14.5 | 0.0 | 0.00 | 0.00 | 0.00 | 87 | |
| 20260506191654 | 8 | 290 | 16.1 | 0.0 | 0.00 | 0.00 | 0.00 | 81 | |
| 20260506181655 | 11 | 240 | 3.2 | 0.0 | 0.00 | 0.00 | 0.00 | 71 | |
| 20260506171638 | 12 | 290 | 9.7 | 0.0 | 0.00 | 0.00 | 0.00 | 66 | |
| 20260506161839 | 12 | 270 | 8.0 | 0.0 | 0.00 | 0.00 | 0.00 | 71 | |
| 20260506151639 | 12 | 260 | 14.5 | 0.0 | 0.00 | 0.00 | 0.00 | 71 | |
| 20260506141639 | 12 | 250 | 20.9 | 32.2 | 0.00 | 0.00 | 0.00 | 71 | |
| 20260506131639 | 10 | 230 | 24.1 | 0.0 | 0.00 | 0.00 | 0.00 | 76 | |
| 20260506121639 | 10 | 240 | 24.1 | 0.0 | 0.00 | 0.00 | 0.00 | 81 |